Location: Four Corners
(38.2757°N, 122.4608°W)
Time: 04:18:37
(UTC+00:00)

Cosmos 1092 Rocket - Pass Details

Date: 08 December 2019
Orbit: 953 x 996 km, 83.0° (Epoch: 18 January)

Event Time Altitude Azimuth Distance (km) Brightness Sun altitude
Rises 02:04:12 0° 179° (S) 3,696 7.3 -14.3°
Reaches altitude 10° 02:06:43 10° 177° (S) 2,748 6.5 -14.8°
Maximum altitude 02:13:00 73° 94° (E) 1,031 3.9 -16.0°
Drops below altitude 10° 02:19:16 10° 11° (N) 2,743 6.1 -17.2°
Sets 02:21:47 0° 9° (N) 3,689 6.8 -17.6°
